Regional Weather Roundup
Issued by NWS Newport/Morehead, NC

Current Version | Previous Version | Graphics & Text | Print | Product List | Glossary Off
Versions: 1 2 3 4 5 6 7 8 9 10 11 12 13 14 15 16 17 18 19 20 21 22 23 24 25 26 27 28 29 30 31 32 33 34 35 36 37 38 39 40 41 42 43 44 45 46 47 48 49 50

000
ASUS42 KMHX 261524
RWRMHX
WEATHER ROUNDUP FOR EASTERN NORTH CAROLINA
NATIONAL WEATHER SERVICE NEWPORT/MOREHEAD CITY NC
1000 AM EST THU FEB 26 2015

NOTE: "FAIR" INDICATES FEW OR NO CLOUDS BELOW 12,000 FEET
WITH NO SIGNIFICANT WEATHER AND/OR OBSTRUCTIONS TO VISIBILITY

NCZ015>017-031-032-045>047-102-103-261600-
NORTH COAST

CITY           SKY/WX    TMP DP  RH WIND       PRES   REMARKS
EDENTON        CLOUDY    34  32  93 N20G25    29.74R FOG
ELIZABETH CITY NOT AVBL
KITTY HAWK     CLOUDY    35  35 100 N17G30    29.63S FOG
MANTEO         CLOUDY    36  34  93 N28G40    29.64S

$$

NCZ045>047-081-094-103-104-261600-
CENTRAL COAST

CITY           SKY/WX    TMP DP  RH WIND       PRES   REMARKS
FRISCO         CLOUDY    36  36 100 N13G30    29.60R
SWANQUARTER      N/A     36 N/A N/A N9G29     29.62S

$$

NCZ095-097-098-100-101-261600-
SOUTHERN COAST

CITY           SKY/WX    TMP DP  RH WIND       PRES   REMARKS
BEAUFORT       CLOUDY    36  35  96 N16G24    29.68R
CEDAR ISLAND     N/A     36 N/A N/A N28       29.68S
JACKSONVILLE   CLOUDY    36  33  89 N18       29.73R
PINEY ISLAND     N/A    N/A N/A N/A MISG      29.66R
WILMINGTON     CLOUDY    37  34  89 N14G22    29.74R


$$

NCZ011>013-027>030-043-044-078>080-089-090>093-098-261600-
COASTAL PLAIN

CITY           SKY/WX    TMP DP  RH WIND       PRES   REMARKS
AHOSKIE        MIX PCPN  32  30  92 N9        29.79R
CLINTON        CLOUDY    36  33  91 N7        29.80R
ELIZABETHTOWN  CLOUDY    35  34  95 N7        29.79R
GOLDSBORO      CLOUDY    34  34 100 N7G20     29.77R
GREENVILLE     CLOUDY    34  32  93 N12G17    29.80R
HAVELOCK       CLOUDY    37  33  85 N14G23    29.71R FOG
KENANSVILLE    CLOUDY    35  32  91 N13       29.79R
KINSTON        CLOUDY    34  32  93 N14       29.77R FOG
NEW BERN       CLOUDY    36  32  85 N12G28    29.74R
RICHLANDS      CLOUDY    36  30  80 N12G18    29.75R
ROCKY MOUNT    NOT AVBL
WASHINGTON     CLOUDY    33  32  95 N14       29.75R
WHITEVILLE     CLOUDY    36  33  87 N6        29.79R

$$

AMZ130-135-150-152-154-156-158-170-250-252-270-ANZ085-086-088-633-658-670-261600-
MARINE OBSERVATIONS

STATION/POSITION TIME  TEMP    WIND        PRES    WAVE   SWELL
                       AIR SEA DIR/SP/G            HT/PER HT/PER
                 (UTC) (F)     (DEG/KT/KT) (MB)    (FT/S) (FT/S)
CHESAPEAKE LIGHT 1500   33      10/ 34/ 39 1006.0
64 E VA BEACH    1450   45 53   20/ 31/ 39 1001.4   11/ 8
DUCK             1500   35 34   10/ 31/ 36 1002.8
2 E DUCK         1411      35                N/A     9/ 7   2/11
10 NE DUCK       1422      38                N/A     9/ 7   2/11
OREGON INLET     1500   36 36  350/ 22/ 32 1002.7
HATTERAS CG      1500   37 45  350/ 28/ 36 1003.0
CAPE LOOKOUT     1500   37     360/ 19/ 24 1004.0
BEAUFORT LAB     1500   36 40  360/ 18/ 24 1004.0
27 SE WRIGHTSVLE NOT AVBL
5 SE WRIGHTSVLE  NOT AVBL
225 S CAPE HAT   1450   74 71  220/ 33/ 41 1005.2   16/ 8
41 SE CHARLESTON 1450   44 66  320/ 19/ 27 1007.9    9/ 9   5/ 9

$$


USA.gov is the U.S. government's official web portal to all federal, state and local government web resources and services.